Weather in Tucurui

Brazil     3°41′14″S   49°42′50″W
temp.,
°C
wind,
m/s
gust,
m/s
humid.,
%
clouds,
%
prec.,
mm/h
press.,
hPa
HPBL,
m
9 march, tue
tue900:00+23ne129790 2.2 101168
03:00+22ne119886 2.2 101041
06:00+22ne119878 0.0 101039
09:00+26ne138789 0.1 1012407
12:00+29n1181100 2.9 1010706
15:00+28nnw228080 6.9 1007676
18:00+25nw129296 5.6 100840
21:00+23nnw269598 8.4 1010166
10 march, wed
wed1000:00+23nnw2797100 2.9 1011310
03:00+23n14100100 20.2 1009300
06:00+22w00100100 37.4 101065
09:00+22wnw01100100 66.4 101394
12:00+23nw2498100 8.3 1013304
15:00+25wnw2386100 8.3 1009507
18:00+25wnw1188100 0.0 100963
21:00+23n1298100 0.9 101154
11 march, thu
thu1100:00+22nnw119794 0.1 101237
03:00+22nnw119797 0.3 101045
06:00+22ssw0199100 0.4 101034
09:00+24ssw1194100 0.6 1013193
12:00+27se118897 4.0 1011513
15:00+31ne116697 5.4 10081051
18:00+26ene149498 3.0 1008110
21:00+23nne129499 6.7 101134
12 march, fri
fri1200:00+23nne2495100 2.8 1012116
03:00+22n1297100 3.4 101037
06:00+22nne119899 0.0 101135
09:00+25ene129097 0.7 1012277
12:00+29e127397 2.3 1011849
15:00+30e127095 3.6 1008758
18:00+26ene128933 2.1 100844
21:00+23n129450 2.6 101132
13 march, sat
sat1300:00+23n129693 2.0 101264
03:00+22nnw139897 4.4 1010132
06:00+22nnw1299100 0.3 101178
09:00+25n239193 0.9 1013405
12:00+29nne237538 0.9 1011999
15:00+30nne136637 3.0 10081185
18:00+26nne26919 1.7 1008285
21:00+23nne249649 3.3 1011124